ITY405 LIRF-LIML

Flight info

Callsign ITY405
Flight time N/A
Altitude 32000
Route LIRF/25 NEMBO DCT ELB DCT NORNI DCT UPDIN DCT SPEZI DCT IDONA DCT MEBUR
Aircraft A320/M-SDE3FGHIRWY/LB1

Departure

Time N/A
Airport Rome–Fiumicino Leonardo da Vinci International Airport (LIRF)

Arrival

Time 2026-05-05 20:43
Airport Milano Linate Airport (LIML)
Time Latitude Longitude Altitude Speed Heading
2026-05-05 20:29 44.73498 9.43506 12979 ft 292 kts 173°
2026-05-05 20:29 44.71532 9.43739 12972 ft 282 kts 188°
2026-05-05 20:30 44.69646 9.43266 12975 ft 276 kts 201°
2026-05-05 20:30 44.67901 9.42116 12979 ft 277 kts 216°
2026-05-05 20:30 44.66529 9.40278 12932 ft 270 kts 235°
2026-05-05 20:30 44.65784 9.37924 12791 ft 261 kts 257°
2026-05-05 20:31 44.65754 9.35409 12560 ft 259 kts 278°
2026-05-05 20:31 44.66472 9.33078 12253 ft 265 kts 303°
2026-05-05 20:31 44.67882 9.31367 11904 ft 275 kts 329°
2026-05-05 20:31 44.69749 9.30695 11547 ft 284 kts 355°
2026-05-05 20:32 44.71740 9.30719 11202 ft 286 kts 358°
2026-05-05 20:32 44.73731 9.30778 10895 ft 285 kts 358°
2026-05-05 20:32 44.75714 9.30841 10571 ft 284 kts 358°
2026-05-05 20:32 44.77688 9.30900 10269 ft 283 kts 358°
2026-05-05 20:33 44.79652 9.30956 9981 ft 282 kts 358°
2026-05-05 20:33 44.81611 9.31008 9647 ft 280 kts 358°
2026-05-05 20:33 44.83554 9.31058 9289 ft 278 kts 358°
2026-05-05 20:33 44.85473 9.31107 8922 ft 276 kts 358°
2026-05-05 20:34 44.87384 9.31154 8423 ft 274 kts 358°
2026-05-05 20:34 44.89281 9.31199 7841 ft 272 kts 358°
2026-05-05 20:34 44.91166 9.31243 7246 ft 270 kts 358°
2026-05-05 20:34 44.93039 9.31288 6713 ft 268 kts 358°
2026-05-05 20:35 44.94889 9.31335 6165 ft 266 kts 359°
2026-05-05 20:35 44.96728 9.31382 5985 ft 265 kts 358°
2026-05-05 20:35 44.98580 9.31429 5976 ft 266 kts 358°
2026-05-05 20:35 45.00431 9.31475 5976 ft 266 kts 359°
2026-05-05 20:36 45.02279 9.31522 5977 ft 265 kts 359°
2026-05-05 20:36 45.04120 9.31569 5977 ft 264 kts 359°
2026-05-05 20:36 45.05958 9.31615 5978 ft 264 kts 359°
2026-05-05 20:36 45.07794 9.31654 5978 ft 264 kts 356°
2026-05-05 20:37 45.09602 9.31474 5791 ft 267 kts 353°
2026-05-05 20:37 45.10872 9.31328 5309 ft 275 kts 353°
2026-05-05 20:37 45.13420 9.31036 4667 ft 277 kts 354°
2026-05-05 20:37 45.15324 9.30834 4538 ft 264 kts 355°
2026-05-05 20:38 45.17097 9.30646 4401 ft 248 kts 355°
2026-05-05 20:38 45.18763 9.30469 4270 ft 239 kts 355°
2026-05-05 20:38 45.20383 9.30295 4139 ft 229 kts 355°
2026-05-05 20:38 45.21931 9.30130 3969 ft 222 kts 355°
2026-05-05 20:39 45.23461 9.29966 3727 ft 219 kts 356°
2026-05-05 20:39 45.24979 9.29803 3465 ft 218 kts 356°
2026-05-05 20:39 45.26480 9.29643 3214 ft 216 kts 357°
2026-05-05 20:39 45.27949 9.29485 3116 ft 208 kts 356°
2026-05-05 20:40 45.29359 9.29334 3038 ft 199 kts 356°
2026-05-05 20:40 45.30728 9.29187 2853 ft 195 kts 357°
2026-05-05 20:40 45.32076 9.29043 2619 ft 193 kts 357°
2026-05-05 20:40 45.33406 9.28900 2376 ft 191 kts 358°
2026-05-05 20:41 45.34713 9.28760 2124 ft 187 kts 358°
2026-05-05 20:41 45.35977 9.28623 1872 ft 175 kts 358°
2026-05-05 20:41 45.37142 9.28497 1646 ft 163 kts 358°
2026-05-05 20:41 45.38233 9.28380 1463 ft 152 kts 359°
2026-05-05 20:42 45.39270 9.28269 1240 ft 147 kts 358°
2026-05-05 20:42 45.40284 9.28151 1036 ft 146 kts 358°
2026-05-05 20:42 45.41289 9.28058 832 ft 143 kts 359°
2026-05-05 20:42 45.42282 9.27956 624 ft 142 kts 358°
2026-05-05 20:43 45.43263 9.27850 453 ft 141 kts 357°
2026-05-05 20:43 45.44212 9.27759 354 ft 120 kts 358°
2026-05-05 20:43 45.44718 9.27710 359 ft 49 kts 353°
2026-05-05 20:43 45.45033 9.27655 366 ft 41 kts 353°
2026-05-05 20:44 45.45279 9.27648 359 ft 29 kts
2026-05-05 20:44 45.45398 9.27720 365 ft 13 kts 35°
2026-05-05 20:44 45.45412 9.27733 366 ft 0 kts 34°
2026-05-05 20:44 45.45418 9.27739 364 ft 6 kts 34°
2026-05-05 20:45 45.45544 9.27814 362 ft 13 kts
2026-05-05 20:45 45.45633 9.27816 363 ft 12 kts 358°
2026-05-05 20:45 45.45711 9.27816 363 ft 10 kts
2026-05-05 20:46 45.45800 9.27818 366 ft 15 kts
2026-05-05 20:46 45.45897 9.27837 365 ft 13 kts 37°
2026-05-05 20:46 45.45907 9.27963 364 ft 13 kts 91°
2026-05-05 20:46 45.45925 9.28034 363 ft 7 kts 11°
2026-05-05 20:47 45.45972 9.28033 369 ft 6 kts
2026-05-05 20:47 45.45984 9.28033 365 ft 0 kts